EA5DHO-13 Weather Reports


time (UTC)temp
C
wind
direction
speed
KPH
gust
KPH
rain 1hr
cm
rain 24hr
cm
rain mn
cm
humidity
%
barometer
mb
20260502202505 18 82 8.0 11.3 0.00 0.00 0.00 86 1019.3
20260502201503 18 90 6.4 12.9 0.00 0.00 0.00 86 1019.4
20260502200459 18 95 8.0 14.5 0.00 0.00 0.00 85 1019.4
20260502195516 18 76 4.8 12.9 0.00 0.00 0.00 84 1019.2
20260502194514 18 105 11.3 14.5 0.00 0.00 0.00 84 1019.2
20260502193449 18 79 4.8 9.7 0.00 0.00 0.00 84 1019.2
20260502192447 18 68 8.0 11.3 0.00 0.00 0.00 85 1019.0
20260502191443 18 90 16.1 20.9 0.00 0.00 0.00 86 1018.9
20260502190500 18 45 6.4 12.9 0.00 0.00 0.00 87 1019.0
20260502185436 18 68 12.9 20.9 0.00 0.00 0.00 87 1018.8
20260502184433 18 68 4.8 9.7 0.00 0.00 0.00 86 1018.8
20260502183510 18 75 12.9 20.9 0.00 0.00 0.00 86 1019.1
20260502181423 18 84 9.7 17.7 0.00 0.00 0.00 86 1019.4
20260502180421 18 76 9.7 17.7 0.00 0.00 0.00 86 1019.6
20260502170502 18 68 6.4 11.3 0.00 0.00 0.00 85 1019.9
20260502163452 19 68 9.7 14.5 0.00 0.00 0.00 83 1019.9
20260502162449 19 68 16.1 20.9 0.00 0.00 0.00 83 1019.8
20260502161446 19 85 9.7 14.5 0.00 0.00 0.00 83 1019.8
20260502160443 20 113 6.4 11.3 0.00 0.00 0.00 81 1019.9
20260502151426 20 105 17.7 22.5 0.00 0.00 0.00 79 1020.3
20260502150502 20 79 9.7 17.7 0.00 0.00 0.00 79 1020.1
20260502130445 20 113 12.9 22.5 0.00 0.00 0.00 83 1021.5
20260502123435 20 113 9.7 24.1 0.00 0.00 0.00 83 1021.6
20260502122431 19 120 16.1 24.1 0.00 0.00 0.00 83 1021.9
20260502121428 19 107 11.3 17.7 0.00 0.00 0.00 82 1022.3
20260502120425 20 135 16.1 17.7 0.00 0.00 0.00 81 1022.2
20260502115421 20 28 12.9 20.9 0.00 0.00 0.00 81 1022.2
20260502113415 20 131 9.7 17.7 0.00 0.00 0.00 82 1022.3
20260502112512 20 130 12.9 17.7 0.00 0.00 0.00 81 1022.3
20260502111510 20 90 11.3 17.7 0.00 0.00 0.00 81 1022.3
20260502110505 20 113 9.7 17.7 0.00 0.03 0.00 81 1022.5
20260502105502 20 90 12.9 17.7 0.00 0.05 0.00 82 1022.7
20260502104459 20 77 11.3 14.5 0.00 0.18 0.00 81 1022.7
20260502103517 20 68 12.9 17.7 0.00 0.30 0.00 80 1022.7
20260502102452 20 68 12.9 20.9 0.00 0.33 0.00 78 1022.7
20260502101449 21 87 3.2 6.4 0.00 0.38 0.00 77 1022.8
20260502100505 20 53 6.4 11.3 0.00 0.38 0.00 77 1022.7
20260502091511 20 78 4.8 9.7 0.00 0.38 0.00 80 1023.1
20260502090427 20 45 4.8 9.7 0.00 0.38 0.00 81 1023.1
20260502071451 18 23 1.6 3.2 0.00 0.38 0.00 86 1023.2
20260502070448 18 23 3.2 6.4 0.00 0.38 0.00 87 1023.1
20260502065444 18 23 0.0 3.2 0.00 0.38 0.00 88 1023.0
20260502064441 18 33 1.6 6.4 0.00 0.38 0.00 89 1023.1
20260502063438 17 23 3.2 6.4 0.00 0.38 0.00 89 1023.3
20260502062435 17 45 3.2 3.2 0.00 0.38 0.00 89 1023.4
20260502061431 17 23 1.6 3.2 0.00 0.38 0.00 89 1023.3
20260502060428 17 39 3.2 6.4 0.00 0.38 0.00 90 1023.1
20260502055427 17 45 0.0 3.2 0.00 0.38 0.00 90 1023.0
20260502054422 17 45 1.6 3.2 0.00 0.38 0.00 91 1023.0
20260502053418 17 35 1.6 3.2 0.00 0.38 0.00 91 1022.9
20260502052437 17 23 0.0 3.2 0.00 0.38 0.00 91 1022.9
20260502051512 17 45 1.6 3.2 0.00 0.38 0.00 92 1022.6
20260502050509 17 45 1.6 3.2 0.00 0.38 0.00 92 1022.9
20260502045507 17 45 1.6 3.2 0.00 0.43 0.00 92 1022.8
20260502044504 17 0.0 3.2 0.00 0.43 0.00 92 1022.9
20260502043500 17 45 0.0 3.2 0.00 0.43 0.00 92 1022.9
20260502042456 17 45 1.6 3.2 0.00 0.43 0.00 92 1022.9
20260502041534 17 23 1.6 3.2 0.00 0.43 0.00 92 1022.9
20260502040451 17 23 1.6 3.2 0.00 0.43 0.00 92 1023.0
20260502035447 17 23 1.6 3.2 0.00 0.43 0.00 92 1023.0
20260502034443 17 23 1.6 3.2 0.00 0.43 0.00 92 1023.2
20260502033440 17 23 0.0 3.2 0.00 0.43 0.00 92 1023.2
20260502032437 17 23 0.0 3.2 0.00 0.43 0.00 92 1023.3
20260502031433 17 23 1.6 3.2 0.00 0.43 0.00 92 1023.2
20260502030430 17 23 0.0 3.2 0.00 0.43 0.00 92 1023.2
20260502025447 17 45 1.6 6.4 0.00 0.43 0.00 91 1023.1
20260502024424 18 23 0.0 3.2 0.00 0.43 0.00 91 1023.1
20260502023420 18 68 1.6 6.4 0.00 0.43 0.00 91 1023.0
20260502022418 18 57 1.6 6.4 0.00 0.43 0.00 91 1023.2
20260502021514 18 45 3.2 6.4 0.00 0.43 0.00 91 1023.1
20260502020511 18 0.0 3.2 0.00 0.43 0.00 91 1023.4
20260502015507 18 45 3.2 6.4 0.00 0.43 0.00 91 1023.4
20260502014504 18 70 3.2 11.3 0.00 0.43 0.00 91 1023.3
20260502013501 18 45 3.2 3.2 0.00 0.43 0.00 90 1023.4
20260502012458 18 53 1.6 6.4 0.00 0.43 0.00 90 1023.4
20260502011455 18 68 3.2 6.4 0.00 0.43 0.00 90 1023.5
20260502010451 18 68 4.8 9.7 0.00 0.43 0.00 90 1023.7
20260502005449 18 45 3.2 6.4 0.00 0.43 0.00 90 1023.8
20260502004507 18 79 8.0 11.3 0.00 0.43 0.00 90 1023.8
20260502003442 18 81 3.2 6.4 0.00 0.43 0.00 90 1023.9
20260502002439 18 56 4.8 14.5 0.00 0.43 0.00 90 1023.9
20260502001435 18 45 1.6 3.2 0.00 0.43 0.00 90 1024.1
20260502000432 18 68 3.2 6.4 0.00 0.43 0.00 90 1024.3
20260501235429 18 113 1.6 3.2 0.00 0.43 0.00 90 1024.3
20260501234446 18 68 6.4 9.7 0.00 0.43 0.00 90 1024.4
20260501233422 18 68 6.4 9.7 0.00 0.43 0.00 90 1024.6
20260501232419 18 52 3.2 6.4 0.00 0.43 0.00 90 1024.7
20260501231416 18 100 1.6 6.4 0.00 0.43 0.00 90 1024.8
20260501230513 18 80 1.6 6.4 0.00 0.43 0.00 90 1024.7
20260501225510 18 58 4.8 9.7 0.00 0.43 0.00 90 1024.6
20260501224506 18 60 3.2 6.4 0.00 0.43 0.00 90 1024.6
20260501223503 18 37 1.6 6.4 0.00 0.43 0.00 90 1024.6
20260501222501 18 52 3.2 3.2 0.00 0.43 0.00 90 1024.6
20260501221457 18 54 4.8 6.4 0.00 0.43 0.00 90 1024.6
20260501220453 18 23 3.2 6.4 0.00 0.43 0.00 89 1024.7
20260501215450 18 59 1.6 6.4 0.00 0.43 0.43 89 1024.9
20260501214509 18 68 3.2 6.4 0.00 0.43 0.43 89 1024.9
20260501213443 18 0.0 3.2 0.00 0.43 0.43 89 1024.9
20260501212441 18 52 6.4 11.3 0.00 0.43 0.43 89 1024.9
20260501211437 18 68 3.2 6.4 0.00 0.43 0.43 89 1025.0
20260501210434 18 23 3.2 6.4 0.00 0.43 0.43 89 1025.1
20260501205431 18 68 3.2 6.4 0.00 0.43 0.43 88 1025.1
20260501204427 18 68 3.2 6.4 0.00 0.43 0.43 89 1025.1
20260501203506 18 68 4.8 9.7 0.00 0.43 0.43 88 1025.0